Westminster, MD

7:49 PM EST on November 21, 2019 (GMT -0500)
Carroll County Regional-Poage

Weather History for KDMW - October, 2019

Change the Weather History Date:

Tuesday, October 22, 2019

  Actual Average (KTHV) Record (KTHV)
Temperature  
Mean Temperature 58 °F -  
Max Temperature 62 °F 0 °F 80 °F (2007)
Min Temperature 53 °F - 30 °F (2002)
Degree Days  
Heating Degree Days 6    
Growing Degree Days 8 (Base 50)    
Moisture  
Dew Point 58 °F    
Average Humidity 95    
Maximum Humidity 100    
Minimum Humidity 88    
Precipitation  
Precipitation 0.39 in - - ()
Sea Level Pressure  
Sea Level Pressure 29.92 in    
Wind  
Wind Speed 7 mph (South)    
Max Wind Speed 13 mph    
Max Gust Speed 21 mph    
Visibility 6 miles    
Events Rain    
Averages and records for this station are not official NWS values.
T = Trace of Precipitation, MM = Missing Value Source: NWS Daily Summary

Daily Weather History Graph

Daily Weather History Graph

Search for Another Location

Airport or City:

Astronomy

Oct. 22, 2019 Rise Set
Actual Time 7:25 AM EDT 6:19 PM EDT
Civil Twilight 6:57 AM EDT 6:46 PM EDT
Nautical Twilight 6:26 AM EDT 7:17 PM EDT
Astronomical Twilight 5:55 AM EDT 7:49 PM EDT
Moon 12:34 AM EDT 3:25 PM EDT
Length of Visible Light 11h 48m
Length of Day
10h 54m
Last Quarter, 37% of the Moon is Illuminated
Oct 22
Last Quarter
Oct 27
New
Nov 4
First Quarter
Nov 12
Full
Nov 19
Last Quarter

Hourly Weather History & Observations

Time (EDT) Temp. Dew Point Humidity Pressure Visibility Wind Dir Wind Speed Gust Speed Precip Events Conditions
12:00 AM 59.0 °F 55.4 °F 88% 30.06 in 10.0 mi SSE 9.2 mph - N/A   Overcast
12:40 AM 59.0 °F 55.4 °F 88% 30.06 in 10.0 mi SSE 4.6 mph - N/A   Overcast
1:00 AM 59.0 °F 55.4 °F 88% 30.06 in 10.0 mi South 9.2 mph - N/A   Overcast
1:20 AM 59.0 °F 55.4 °F 88% 30.06 in 10.0 mi SSE 6.9 mph - N/A   Overcast
1:40 AM 59.0 °F 55.4 °F 88% 30.06 in 10.0 mi SSE 8.1 mph - N/A   Overcast
2:00 AM 59.0 °F 55.4 °F 88% 30.06 in 10.0 mi South 6.9 mph - N/A   Overcast
2:20 AM 59.0 °F 55.4 °F 88% 30.07 in 5.0 mi South 9.2 mph - N/A   Overcast
2:40 AM 59.0 °F 55.4 °F 88% 30.06 in 10.0 mi SSE 4.6 mph - N/A   Overcast
3:00 AM 59.0 °F 57.2 °F 94% 30.04 in 4.0 mi SSE 4.6 mph - N/A   Overcast
3:20 AM 57.2 °F 57.2 °F 100% 30.03 in 4.0 mi SSE 8.1 mph - N/A   Overcast
3:40 AM 57.2 °F 57.2 °F 100% 30.02 in 2.5 mi SSE 4.6 mph - N/A   Overcast
4:00 AM 57.2 °F 57.2 °F 100% 30.02 in 2.0 mi South 5.8 mph - N/A   Overcast
4:20 AM 57.2 °F 57.2 °F 100% 30.00 in 2.0 mi SE 6.9 mph - N/A   Overcast
4:40 AM 57.2 °F 57.2 °F 100% 30.00 in 2.5 mi SSE 4.6 mph - N/A   Light Drizzle
5:00 AM 57.2 °F 57.2 °F 100% 29.99 in 2.5 mi SSE 4.6 mph - N/A   Light Drizzle
5:20 AM 57.2 °F 57.2 °F 100% 30.01 in 2.5 mi SSE 3.5 mph - N/A   Overcast
5:40 AM 57.2 °F 57.2 °F 100% 29.99 in 2.5 mi SSE 8.1 mph - N/A   Overcast
6:00 AM 57.2 °F 57.2 °F 100% 30.00 in 3.0 mi SSE 6.9 mph - N/A   Overcast
6:20 AM 57.2 °F 57.2 °F 100% 30.00 in 2.5 mi SSE 5.8 mph - N/A Rain Rain
6:40 AM 57.2 °F 57.2 °F 100% 29.99 in 2.5 mi SE 5.8 mph - 0.01 in Rain Light Rain
7:00 AM 57.2 °F 57.2 °F 100% 29.98 in 2.5 mi SE 6.9 mph - N/A   Light Drizzle
7:20 AM 57.2 °F 57.2 °F 100% 29.98 in 2.0 mi SSE 5.8 mph - N/A   Overcast
7:40 AM 59.0 °F 57.2 °F 94% 29.98 in 2.0 mi SSE 4.6 mph - N/A   Overcast
8:00 AM 59.0 °F 57.2 °F 94% 29.99 in 1.2 mi South 8.1 mph - N/A   Overcast
8:20 AM 59.0 °F 57.2 °F 94% 29.99 in 1.2 mi South 6.9 mph - N/A   Overcast
8:40 AM 59.0 °F 57.2 °F 94% 30.00 in 1.2 mi South 6.9 mph - N/A   Overcast
9:00 AM 59.0 °F 57.2 °F 94% 30.00 in 1.2 mi South 5.8 mph - N/A   Overcast
9:20 AM 59.0 °F 57.2 °F 94% 29.98 in 1.2 mi SSE 5.8 mph - N/A   Overcast
9:40 AM 60.8 °F 59.0 °F 94% 29.97 in 1.5 mi SSE 8.1 mph - 0.01 in   Overcast
10:00 AM 60.8 °F 59.0 °F 94% 29.95 in 2.0 mi SE 12.7 mph 17.3 mph N/A   Overcast
10:20 AM 60.8 °F 59.0 °F 94% 29.94 in 3.0 mi SE 8.1 mph - N/A   Overcast
10:40 AM 60.8 °F 59.0 °F 94% 29.95 in 4.0 mi SSE 9.2 mph 16.1 mph N/A   Overcast
11:00 AM 60.8 °F 59.0 °F 94% 29.95 in 3.0 mi SSE 11.5 mph 18.4 mph N/A   Overcast
11:20 AM 60.8 °F 59.0 °F 94% 29.93 in 4.0 mi SSE 12.7 mph 18.4 mph N/A   Overcast
11:40 AM 60.8 °F 59.0 °F 94% 29.92 in 4.0 mi SSE 10.4 mph 16.1 mph N/A   Overcast
12:00 PM 60.8 °F 59.0 °F 94% 29.91 in 10.0 mi SSE 11.5 mph 16.1 mph N/A   Overcast
12:20 PM 60.8 °F 59.0 °F 94% 29.90 in 10.0 mi SE 8.1 mph 17.3 mph N/A   Overcast
12:40 PM 60.8 °F 59.0 °F 94% 29.89 in 10.0 mi SSE 9.2 mph 17.3 mph N/A   Overcast
1:00 PM 62.6 °F 59.0 °F 88% 29.88 in 10.0 mi SSE 10.4 mph - N/A   Overcast
1:20 PM 62.6 °F 59.0 °F 88% 29.85 in 10.0 mi SE 9.2 mph 19.6 mph N/A   Overcast
1:40 PM 60.8 °F 59.0 °F 94% 29.84 in 4.0 mi SE 8.1 mph - N/A   Overcast
2:00 PM 60.8 °F 59.0 °F 94% 29.82 in 4.0 mi SE 12.7 mph 18.4 mph N/A   Light Drizzle
2:20 PM 60.8 °F 59.0 °F 94% 29.82 in 3.0 mi SE 10.4 mph 16.1 mph N/A Rain Light Rain
2:40 PM 60.8 °F 60.8 °F 100% 29.81 in 10.0 mi SSE 10.4 mph 17.3 mph 0.02 in Rain Light Rain
3:00 PM 60.8 °F 60.8 °F 100% 29.81 in 5.0 mi SSE 9.2 mph 17.3 mph 0.02 in Rain Rain
3:20 PM 60.8 °F 60.8 °F 100% 29.82 in 4.0 mi South 6.9 mph 18.4 mph 0.06 in Rain Heavy Rain
3:40 PM 60.8 °F 60.8 °F 100% 29.83 in 4.0 mi SW 5.8 mph - 0.13 in Rain Heavy Rain
4:00 PM 60.8 °F 60.8 °F 100% 29.84 in 4.0 mi West 5.8 mph - 0.07 in Rain Heavy Rain
4:20 PM 60.8 °F 59.0 °F 94% 29.85 in 4.0 mi West 12.7 mph 20.7 mph 0.15 in Rain Rain
4:40 PM 60.8 °F 57.2 °F 88% 29.85 in 7.0 mi WSW 6.9 mph - 0.20 in Rain Rain
5:00 PM 60.8 °F 57.2 °F 88% 29.83 in 7.0 mi SW 3.5 mph - 0.01 in Rain Heavy Rain
5:20 PM 60.8 °F 59.0 °F 94% 29.83 in 10.0 mi Calm Calm - 0.01 in Rain Rain
5:40 PM 60.8 °F 59.0 °F 94% 29.83 in 10.0 mi Calm Calm - 0.02 in Rain Light Rain
6:00 PM 60.8 °F 59.0 °F 94% 29.82 in 10.0 mi Calm Calm - N/A   Drizzle
6:20 PM 60.8 °F 59.0 °F 94% 29.81 in 10.0 mi Calm Calm - N/A   Light Drizzle
6:40 PM 60.8 °F 57.2 °F 88% 29.81 in 10.0 mi Calm Calm - N/A   Light Drizzle
7:00 PM 60.8 °F 57.2 °F 88% 29.82 in 10.0 mi Calm Calm - N/A   Overcast
7:20 PM 60.8 °F 57.2 °F 88% 29.83 in 10.0 mi Calm Calm - N/A   Overcast
7:40 PM 59.0 °F 57.2 °F 94% 29.84 in 10.0 mi West 3.5 mph - N/A   Overcast
8:00 PM 59.0 °F 57.2 °F 94% 29.85 in 10.0 mi Calm Calm - N/A   Overcast
8:20 PM 59.0 °F 57.2 °F 94% 29.86 in 1.5 mi WNW 11.5 mph - N/A   Overcast
8:40 PM 59.0 °F 57.2 °F 94% 29.86 in 7.0 mi WNW 8.1 mph - N/A   Overcast
9:00 PM 57.2 °F 57.2 °F 100% 29.86 in 10.0 mi NW 3.5 mph - N/A   Mostly Cloudy
9:20 PM 57.2 °F 57.2 °F 100% 29.86 in 10.0 mi WNW 4.6 mph - N/A   Mostly Cloudy
9:40 PM 57.2 °F 57.2 °F 100% 29.86 in 10.0 mi NW 5.8 mph - N/A   Mostly Cloudy
10:00 PM 57.2 °F 55.4 °F 94% 29.86 in 5.0 mi WNW 5.8 mph - N/A   Scattered Clouds
10:20 PM 55.4 °F 55.4 °F 100% 29.87 in 7.0 mi WNW 4.6 mph - N/A   Clear
10:40 PM 55.4 °F 55.4 °F 100% 29.87 in 10.0 mi West 5.8 mph - N/A   Clear
11:20 PM 55.4 °F 53.6 °F 94% 29.87 in 10.0 mi Calm Calm - N/A   Clear
11:40 PM 53.6 °F 51.8 °F 94% 29.86 in 0.8 mi Calm Calm - N/A   Mostly Cloudy